LiveATC.Net - Listen to live air traffic control over the Internet!


ICAO: WMKB  IATA: BWH   Airport: Butterworth Airport
City: Penang
Country: Malaysia   Continent: Asia
WMKB METAR Weather: WMKB 081300Z 14005KT 100V170 9000 FEW024 28/25 Q1008 NOSIG
WMKB ADS-B Flight Tracking  (ADSBExchange)
WMKB Flight Activity (FlightAware)

WMKB Radar
Feed Status: UP   Listeners: 6
Listen in your browser - HTML5 player (in browser, HTML5)
Click here to listen with your own player (launches your MP3 player)
Archive Access: WMKB Radar
FacilityFrequency
Butterworth Radar125.800

NOTICE

Unauthorized use prohibited. See LiveATC.net Terms of Service


Airport/ARTCC Code
Frequency Search
(e.g., 124.400, 128.75)
Site-wide search
 


Browse Feeds
Top 50 Feeds
HF Oceanic Feeds
Coverage Map
Bad Weather Areas

LiveATC FAQ
Offer LiveATC feed
Contact LiveATC.net
Press Inquiries

LiveATC on iPhone
LiveATC on Android

LiveATC Mobile
(Mobile browser)

ATC Audio Archives
Interesting Recordings

LiveATC Forums


Home Page
About LiveATC.net


Terms of Use
Privacy Policy

AIRMETs/SIGMETs

FAA Airport Status
NAS Status
Arrival Demand


Server Software By:
Icecast.org
Liquidsoap